Powrót do katalogu

COSMOS 689

AktywnyMilitariaPO
NORAD 7476·PAYLOAD·🇷🇺 Russia

Wystrzelony Oct 18, 1974 z Plesetsk Cosmodrome

Loading…

Następne Przeloty (najbliższe 24 godziny)

TLE

ŚwieżeSource: Space-Track

Epoka: Sep 14, 2026, 13:45 UTC

1 07476U 74079A   26257.57358757  .00000039  00000-0  26555-4 0  9999
2 07476  82.9393 110.8958 0028985 233.4202 154.9626 13.72372711598638

Śledź COSMOS 689 w czasie rzeczywistym z AllMySat

Download on the App Store